Waarnemingen

Advertentie
Mijn weer
Eskdalemuir, Groot Brittannië (3162): temperatuur & dauwpunt: 18.02.2018 21:00:00 - 24.02.2018 21:00:00 (GMT)Eskdalemuir, Groot Brittannië (3162): temperatuur -20cm & temperatuur -100cm: 18.02.2018 21:00:00 - 24.02.2018 21:00:00 (GMT)Eskdalemuir, Groot Brittannië (3162): windsnelheid & windstoten: 18.02.2018 21:00:00 - 24.02.2018 21:00:00 (GMT)Eskdalemuir, Groot Brittannië (3162): windrichting: 18.02.2018 21:00:00 - 24.02.2018 21:00:00 (GMT)Eskdalemuir, Groot Brittannië (3162): luchtdruk: 18.02.2018 21:00:00 - 24.02.2018 21:00:00 (GMT)Eskdalemuir, Groot Brittannië (3162): zicht: 18.02.2018 21:00:00 - 24.02.2018 21:00:00 (GMT)Eskdalemuir, Groot Brittannië (3162): Zonneschijnduur: 18.02.2018 21:00:00 - 24.02.2018 21:00:00 (GMT)Eskdalemuir, Groot Brittannië (3162): neerslag: 18.02.2018 21:00:00 - 24.02.2018 21:00:00 (GMT)
Datum & Tijd tt [°C] td [°C] tt -20cm [°C] tt -100cm [°C] ff [km/u] ff [kn] fx [km/u] fx [kn] dd ppp [hPa] vv [km] sd [min] rr [mm]
24.02.2018 21:00:00 -1,0 -3,6 - - 2 1 - - O 1029,1 18 0 0,0
24.02.2018 20:00:00 0,0 -2,8 - - 4 2 - - NW 1028,4 15 0 0,0
24.02.2018 19:00:00 0,9 -3,4 - - 2 1 - - WZW 1027,8 9 0 0,0
24.02.2018 18:00:00 2,2 -5,2 - - 4 2 - - OZO 1026,9 20 18 0,0
24.02.2018 17:00:00 3,6 -5,1 - - 13 7 - - ZZO 1026,4 35 60 0,0
24.02.2018 16:00:00 4,6 -7,3 - - 11 6 - - ZO 1025,8 28 60 0,0
24.02.2018 15:00:00 5,1 -5,5 - - 11 6 - - ZO 1025,6 22 60 0,0
24.02.2018 14:00:00 4,7 -6,1 - - 13 7 - - ZZO 1025,5 15 60 0,0
24.02.2018 13:00:00 3,8 -6,0 - - 11 6 - - ZO 1025,7 20 60 0,0
24.02.2018 12:00:00 3,2 -2,0 - - 18 10 - - ZZO 1025,9 15 60 0,0
24.02.2018 11:00:00 2,0 1,6 - - 15 8 - - ZZO 1026,0 17 60 0,0
24.02.2018 10:00:00 1,2 0,7 - - 13 7 - - ZZO 1025,8 16 48 0,0
24.02.2018 09:00:00 -0,1 -3,5 3,7 4,9 9 5 - - ZO 1025,3 16 30 0,0
24.02.2018 08:00:00 -1,5 -4,0 - - 4 2 - - ZZO 1025,0 12 0 0,0
24.02.2018 07:00:00 -2,3 -4,6 - - 5 3 - - OZO 1024,5 11 0 0,0
24.02.2018 06:00:00 -2,0 -4,3 - - 4 2 - - ZZW 1023,9 12 0 0,0
24.02.2018 05:00:00 -1,6 -4,2 - - 4 2 - - ZZO 1023,7 14 0 0,0
24.02.2018 04:00:00 -1,3 -4,2 - - 5 3 - - ZO 1023,2 20 0 0,0
24.02.2018 03:00:00 -1,3 -4,1 - - 5 3 - - ZO 1023,2 28 0 0,0
24.02.2018 02:00:00 -1,3 -4,2 - - 8 4 - - ZO 1023,2 23 0 0,0
24.02.2018 01:00:00 -1,0 -4,2 - - 9 5 - - ZZO 1023,0 40 0 0,0
24.02.2018 00:00:00 -0,6 -4,0 - - 11 6 - - ZZO 1022,7 45 - 0,0
23.02.2018 23:00:00 -0,3 -4,2 - - 5 3 - - OZO 1022,6 40 0 0,0
23.02.2018 22:00:00 0,2 -3,7 - - 8 4 - - ZO 1022,3 25 0 0,0
23.02.2018 21:00:00 0,6 -3,4 - - 8 4 - - ZO 1022,2 21 0 0,0
23.02.2018 20:00:00 0,6 -2,9 - - 4 2 - - ZO 1022,2 19 0 0,0
23.02.2018 19:00:00 0,8 -2,4 - - 5 3 - - ZO 1022,0 18 0 0,0
23.02.2018 18:00:00 1,7 -2,1 - - 5 3 - - ZO 1021,9 24 0 0,0
23.02.2018 17:00:00 2,1 -2,1 - - 13 7 - - ZZO 1021,6 29 0 0,0
23.02.2018 16:00:00 3,1 -3,4 - - 21 11 - - ZZO 1021,4 30 0 0,0
23.02.2018 15:00:00 3,7 -3,0 - - 16 9 - - ZZO 1021,6 22 42 0,0
23.02.2018 14:00:00 2,8 -3,4 - - 22 12 - - ZZO 1022,2 22 18 0,0
23.02.2018 13:00:00 2,7 -2,9 - - 16 9 - - ZZO 1022,7 16 42 0,0
23.02.2018 12:00:00 2,3 -2,9 - - 16 9 - - ZZO 1023,4 18 48 0,0
23.02.2018 11:00:00 1,9 -3,4 - - 15 8 - - ZZO 1023,7 14 60 0,0
23.02.2018 10:00:00 0,7 -3,6 - - 8 4 - - ZZO 1024,0 10 60 0,0
23.02.2018 09:00:00 -1,9 -3,4 4,0 4,9 0 0 - - N 1024,2 12 12 0,0
23.02.2018 08:00:00 -4,2 -4,8 - - 2 1 - - NW 1024,5 12 0 0,0
23.02.2018 07:00:00 -4,7 -5,5 - - 2 1 - - NNW 1024,4 2,7 0 0,0
23.02.2018 06:00:00 -4,4 -5,1 - - 4 2 - - NNW 1024,3 2,7 0 0,0
23.02.2018 05:00:00 -4,4 -5,1 - - 4 2 - - N 1024,1 2,6 0 0,0
23.02.2018 04:00:00 -3,9 -4,7 - - 4 2 - - NNW 1024,0 3,2 0 0,0
23.02.2018 03:00:00 -3,9 -5,1 - - 0 0 - - N 1024,3 3,1 0 0,0
23.02.2018 02:00:00 -3,0 -4,2 - - 5 3 - - ZZO 1024,4 4,5 0 0,0
23.02.2018 01:00:00 -2,6 -4,1 - - 5 3 - - ZZW 1024,1 5 0 0,0
23.02.2018 00:00:00 -1,5 -3,7 - - 8 4 - - Z 1024,0 6 - 0,0
22.02.2018 23:00:00 -0,4 -2,8 - - 11 6 - - Z 1024,1 7 0 0,0
22.02.2018 22:00:00 -1,4 -2,4 - - 2 1 - - ZZW 1024,3 9 0 0,0
22.02.2018 21:00:00 -2,2 -3,3 - - 2 1 - - WNW 1024,4 8 0 0,0
22.02.2018 20:00:00 -1,5 -3,0 - - 4 2 - - NNW 1024,5 9 0 0,0
22.02.2018 19:00:00 0,1 -3,2 - - 4 2 - - Z 1024,1 13 0 0,0
22.02.2018 18:00:00 1,8 -2,2 - - 8 4 - - Z 1024,0 15 0 0,0
22.02.2018 17:00:00 2,4 -2,7 - - 9 5 - - ZZO 1023,9 18 0 0,0
22.02.2018 16:00:00 2,6 -2,7 - - 13 7 - - Z 1023,9 18 0 0,0
22.02.2018 15:00:00 2,9 -1,5 - - 16 9 - - Z 1024,2 18 0 0,0
22.02.2018 14:00:00 2,8 -1,0 - - 15 8 - - ZZO 1024,6 17 0 0,0
22.02.2018 13:00:00 3,2 -1,5 - - 16 9 - - ZZO 1025,0 20 0 0,0
22.02.2018 12:00:00 3,4 -1,0 - - 13 7 - - ZZO 1025,1 25 54 0,0
22.02.2018 11:00:00 3,0 -0,9 - - 5 3 - - Z 1025,7 20 42 0,0
22.02.2018 10:00:00 -1,0 -1,6 - - 0 0 - - N 1026,6 30 0 0,0
22.02.2018 09:00:00 -1,9 -2,3 4,4 4,7 2 1 - - N 1027,0 30 0 0,0
22.02.2018 08:00:00 -2,5 -3,2 - - 4 2 - - NNW 1026,8 30 0 0,0
22.02.2018 07:00:00 -2,6 -3,1 - - 5 3 - - N 1026,8 23 0 0,0
22.02.2018 06:00:00 -2,7 -3,2 - - 2 1 - - NNW 1026,9 17 0 0,0
22.02.2018 05:00:00 -3,1 -3,7 - - 5 3 - - NNW 1026,9 15 0 0,0
22.02.2018 04:00:00 -2,6 -3,1 - - 5 3 - - NNW 1027,3 14 0 0,0
22.02.2018 03:00:00 -2,3 -2,7 - - 8 4 - - N 1027,6 14 0 0,0
22.02.2018 02:00:00 -1,8 -2,2 - - 9 5 - - N 1028,1 12 0 0,0
22.02.2018 01:00:00 -2,0 -2,8 - - 5 3 - - NNW 1028,4 12 0 0,0
22.02.2018 00:00:00 -1,4 -2,3 - - 5 3 - - NW 1028,5 13 - 0,0
21.02.2018 23:00:00 0,1 -1,0 - - 4 2 - - N 1028,4 13 0 0,0
21.02.2018 22:00:00 1,6 -0,1 - - 0 0 - - N 1028,5 14 0 0,0
21.02.2018 21:00:00 2,4 0,1 - - 2 1 - - NW 1028,5 18 0 0,0
21.02.2018 20:00:00 2,6 -0,1 - - 5 3 - - N 1028,5 18 0 0,0
21.02.2018 19:00:00 2,7 0,0 - - 4 2 - - N 1028,3 22 0 0,0
21.02.2018 18:00:00 3,7 0,4 - - 4 2 - - NW 1028,1 23 0 0,0
21.02.2018 17:00:00 4,3 0,6 - - 4 2 - - NO 1028,0 40 0 0,0
21.02.2018 16:00:00 6,0 -2,3 - - 4 2 - - O 1027,8 40 6 0,0
21.02.2018 15:00:00 6,4 -1,5 - - 2 1 - - ZZO 1028,1 40 6 0,0
21.02.2018 14:00:00 7,0 -1,3 - - 9 5 - - ZZO 1028,4 35 42 0,0
21.02.2018 13:00:00 7,3 -1,0 - - 4 2 - - OZO 1029,1 30 54 0,0
21.02.2018 12:00:00 6,8 0,3 - - 5 3 - - ZZO 1029,7 25 60 0,0
21.02.2018 11:00:00 4,6 1,4 - - 4 2 - - N 1030,3 25 30 0,0
21.02.2018 10:00:00 0,4 -1,1 - - 2 1 - - WZW 1031,0 25 0 0,0
21.02.2018 09:00:00 -0,7 -1,6 4,5 4,7 0 0 - - N 1031,1 35 0 0,0
21.02.2018 08:00:00 -1,8 -2,4 - - 2 1 - - OZO 1031,0 25 0 0,0
21.02.2018 07:00:00 -1,9 -2,3 - - 2 1 - - WZW 1030,9 15 0 0,0
21.02.2018 06:00:00 -2,2 -2,6 - - 4 2 - - NW 1030,9 14 0 0,0
21.02.2018 05:00:00 -2,9 -3,3 - - 2 1 - - N 1031,1 12 0 0,0
21.02.2018 04:00:00 -3,1 -3,5 - - 0 0 - - N 1031,3 10 0 0,0
21.02.2018 03:00:00 -2,4 -2,9 - - 0 0 - - N 1031,6 11 0 0,0
21.02.2018 02:00:00 -1,8 -2,3 - - 0 0 - - N 1031,6 17 0 0,0
21.02.2018 01:00:00 -0,8 -1,1 - - 0 0 - - N 1031,4 22 0 0,0
21.02.2018 00:00:00 -1,1 -1,8 - - 5 3 - - NNW 1031,3 21 - 0,0
20.02.2018 23:00:00 -0,6 -1,6 - - 9 5 - - N 1030,7 27 0 0,0
20.02.2018 22:00:00 1,0 -0,9 - - 5 3 - - N 1030,2 35 0 0,0
20.02.2018 21:00:00 2,8 -1,0 - - 15 8 - - N 1029,5 35 0 0,0
20.02.2018 20:00:00 3,2 -0,8 - - 13 7 - - N 1029,1 35 0 0,0
20.02.2018 19:00:00 2,5 -0,3 - - 9 5 - - NW 1028,6 40 0 0,0
20.02.2018 18:00:00 4,5 0,2 - - 5 3 - - WNW 1028,2 45 6 0,0
20.02.2018 17:00:00 6,4 0,3 - - 9 5 - - N 1027,4 50 60 0,0
20.02.2018 16:00:00 7,8 0,4 - - 24 13 - - NNW 1026,5 50 54 0,0
20.02.2018 15:00:00 7,8 0,0 - - 16 9 - - N 1026,4 50 42 0,0
20.02.2018 14:00:00 7,9 0,1 - - 16 9 - - N 1026,0 50 48 0,0
20.02.2018 13:00:00 7,3 0,5 - - 24 13 - - NNW 1025,6 40 54 0,0
20.02.2018 12:00:00 7,3 0,6 - - 29 16 - - NNW 1025,0 40 60 0,0
20.02.2018 11:00:00 7,2 0,7 - - 22 12 - - NNW 1024,8 40 60 0,0
20.02.2018 10:00:00 6,2 1,4 - - 13 7 - - NNW 1024,7 40 60 0,0
20.02.2018 09:00:00 5,4 1,4 4,2 4,7 21 11 - - NW 1024,0 40 54 0,0
20.02.2018 08:00:00 3,4 0,5 - - 22 12 - - NW 1023,0 40 0 0,0
20.02.2018 07:00:00 4,0 0,5 - - 28 15 - - NNW 1022,1 30 0 0,0
20.02.2018 06:00:00 4,2 1,2 - - 24 13 - - NW 1021,3 23 0 0,0
20.02.2018 05:00:00 4,6 1,7 - - 21 11 - - NW 1020,9 20 0 0,0
20.02.2018 04:00:00 4,9 2,0 - - 18 10 46 25 NW 1020,4 15 0 0,0
20.02.2018 03:00:00 4,9 1,5 - - 16 9 59 32 NW 1019,8 21 0 0,0
20.02.2018 02:00:00 5,7 2,2 - - 15 8 - - WNW 1018,8 30 0 0,0
20.02.2018 01:00:00 6,0 3,9 - - 18 10 - - N 1019,1 30 0 0,4
20.02.2018 00:00:00 7,4 5,2 - - 16 9 - - WNW 1018,8 22 - 0,0
19.02.2018 23:00:00 6,5 5,9 - - 0 0 - - N 1018,2 5 0 0,0
19.02.2018 22:00:00 6,5 5,5 - - 0 0 - - N 1018,4 45 0 0,0
19.02.2018 21:00:00 6,5 5,5 - - 5 3 - - NO 1018,3 50 0 0,0
19.02.2018 20:00:00 8,0 5,6 - - 4 2 - - ZZW 1018,4 50 0 0,0
19.02.2018 19:00:00 8,6 5,8 - - 5 3 - - NO 1017,5 50 0 0,0
19.02.2018 18:00:00 9,2 6,3 - - 9 5 - - N 1017,3 50 0 0,0
19.02.2018 17:00:00 9,8 6,3 - - 15 8 - - NW 1016,8 35 0 0,0
19.02.2018 16:00:00 10,6 6,8 - - 22 12 - - NW 1016,3 30 0 0,0
19.02.2018 15:00:00 10,6 6,5 - - 13 7 - - NW 1016,3 30 0 0,0
19.02.2018 14:00:00 11,0 6,6 - - 13 7 - - NW 1016,1 30 6 0,0
19.02.2018 13:00:00 11,8 6,8 - - 11 6 - - NW 1015,9 25 30 0,0
19.02.2018 12:00:00 11,6 7,3 - - 5 3 - - NNW 1015,9 25 24 0,0
19.02.2018 11:00:00 10,3 7,1 - - 8 4 - - NW 1015,8 20 0 0,0
19.02.2018 10:00:00 9,6 7,1 - - 8 4 - - NNW 1015,5 18 0 0,0
19.02.2018 09:00:00 7,6 7,0 3,7 4,7 2 1 - - OZO 1015,5 16 0 0,0
19.02.2018 08:00:00 6,9 6,7 - - 5 3 - - O 1015,3 12 0 0,0
19.02.2018 07:00:00 6,1 5,9 - - 8 4 - - ZO 1015,2 9 0 0,0
19.02.2018 06:00:00 5,7 5,5 - - 8 4 - - ZZO 1014,8 0,5 0 0,0
19.02.2018 05:00:00 5,5 5,4 - - 9 5 - - ZZO 1014,7 1,2 0 0,2
19.02.2018 04:00:00 5,5 5,3 - - 11 6 - - Z 1014,7 5 0 0,4
19.02.2018 03:00:00 5,4 5,2 - - 9 5 - - Z 1014,9 0,4 0 0,0
19.02.2018 02:00:00 5,4 5,2 - - 5 3 - - Z 1015,1 0,8 0 0,2
19.02.2018 01:00:00 5,4 5,2 - - 8 4 - - ZZW 1015,5 3,3 0 0,2
19.02.2018 00:00:00 5,4 5,1 - - 8 4 - - ZZW 1015,8 2,6 - 0,4
18.02.2018 23:00:00 5,4 5,1 - - 9 5 - - ZZW 1016,0 2,0 0 0,2
18.02.2018 22:00:00 5,3 5,0 - - 13 7 - - ZZW 1016,2 2,6 0 0,4
18.02.2018 21:00:00 5,1 4,8 - - 11 6 - - ZZW 1016,5 2,7 0 0,4

tt = temperatuur
td = dauwpunt
tt -20cm = temperatuur -20cm
tt -100cm = temperatuur -100cm
ff = windsnelheid
fx = windstoten
dd = windrichting
ppp = luchtdruk
vv = zicht
sd = Zonneschijnduur
rr = neerslag

Weerstations in de omgeving